Rifle, CO

9:16 AM MST on February 20, 2018 (GMT -0700)
Garfield County Regional

Weather History for KRIL - January, 2012

Change the Weather History Date:

Tuesday, January 24, 2012

  Actual Average Record
Temperature  
Mean Temperature 30 °F 25 °F  
Max Temperature 39 °F 37 °F 53 °F (1970)
Min Temperature 20 °F 13 °F -13 °F (1932)
Degree Days  
Heating Degree Days 35 40  
Month to date heating degree days 935 995  
Since 1 July heating degree days 3542 3759  
Cooling Degree Days 0 0  
Month to date cooling degree days 0  
Year to date cooling degree days 0  
Moisture  
Dew Point 24 °F    
Average Humidity 70    
Maximum Humidity 92    
Minimum Humidity 48    
Precipitation  
Precipitation 0.02 in 0.03 in 0.60 in (1943)
Month to date precipitation 0.50 0.68  
Year to date precipitation 0.50 0.68  
Sea Level Pressure  
Sea Level Pressure 30.12 in    
Wind  
Wind Speed 5 mph (SW)    
Max Wind Speed 18 mph    
Max Gust Speed 23 mph    
Visibility 7 miles    
Events Snow    
T = Trace of Precipitation, MM = Missing Value Source: NWS Daily Summary

Daily Weather History Graph

Daily Weather History Graph

Search for Another Location

Airport or City:

Trip Planner

Search our weather history database for the weather conditions in past years. The results will help you decide how hot, cold, wet, or windy it might be!

Date:

Astronomy

Jan. 24, 2012 Rise Set
Actual Time 7:25 AM MST 5:21 PM MST
Civil Twilight 6:56 AM MST 5:50 PM MST
Nautical Twilight 6:23 AM MST 6:22 PM MST
Astronomical Twilight 5:51 AM MST 6:54 PM MST
Moon 7:56 AM MST (1/24) 7:15 PM MST (1/24)
Length of Visible Light 10h 53m
Length of Day
9h 56m
Waxing Crescent, 3% of the Moon is Illuminated
Jan 24
Waxing Crescent
Jan 30
First Quarter
Feb 7
Full
Feb 14
Last Quarter
Feb 21
New

Hourly Weather History & Observations

Time (MST) Temp. Windchill Dew Point Humidity Pressure Visibility Wind Dir Wind Speed Gust Speed Precip Events Conditions
12:53 AM 30.0 °F - 24.1 °F 79% 29.93 in 10.0 mi Calm Calm - N/A   Overcast
1:53 AM 30.0 °F - 24.1 °F 79% 29.95 in 10.0 mi Calm Calm - N/A   Overcast
3:05 AM 28.4 °F - 26.6 °F 93% 29.94 in 4.0 mi Calm Calm - 0.00 in Snow Light Snow
3:30 AM 28.4 °F - 26.6 °F 93% 29.93 in 3.0 mi Calm Calm - 0.00 in Snow Light Snow
4:13 AM 28.4 °F - 26.6 °F 93% 29.95 in 3.0 mi Calm Calm - 0.00 in Snow Light Snow
4:53 AM 28.0 °F - 26.1 °F 92% 30.01 in 5.0 mi Calm Calm - 0.00 in Snow Light Snow
5:04 AM 28.4 °F - 26.6 °F 93% 29.98 in 5.0 mi Calm Calm - 0.00 in Snow Light Snow
5:24 AM 28.4 °F 24.6 °F 26.6 °F 93% 29.99 in 1.5 mi SSE 3.5 mph - 0.00 in Snow Light Snow
5:40 AM 28.4 °F 24.6 °F 26.6 °F 93% 29.99 in 1.2 mi South 3.5 mph - 0.00 in Snow Light Snow
5:46 AM 28.4 °F 23.3 °F 26.6 °F 93% 30.00 in 1.5 mi South 4.6 mph - 0.01 in Snow Light Snow
5:53 AM 28.9 °F 23.9 °F 27.0 °F 92% 30.04 in 1.5 mi South 4.6 mph - 0.01 in Snow Light Snow
6:03 AM 28.4 °F 23.3 °F 26.6 °F 93% 30.00 in 3.0 mi South 4.6 mph - 0.00 in Snow Light Snow
6:18 AM 28.4 °F - 26.6 °F 93% 30.01 in 4.0 mi Calm Calm - 0.00 in Snow Light Snow
6:37 AM 28.4 °F - 26.6 °F 93% 30.02 in 2.0 mi Calm Calm - 0.00 in Snow Light Snow
6:53 AM 28.0 °F - 27.0 °F 96% 30.08 in 4.0 mi Calm Calm - 0.00 in Snow Light Snow
7:19 AM 28.4 °F 24.6 °F 26.6 °F 93% 30.03 in 4.0 mi ENE 3.5 mph - 0.00 in   Overcast
7:35 AM 28.4 °F - 26.6 °F 93% 30.03 in 2.5 mi Calm Calm - 0.00 in   Overcast
7:48 AM 28.4 °F - 26.6 °F 93% 30.04 in 4.0 mi Calm Calm - 0.00 in   Overcast
7:53 AM 28.0 °F 24.2 °F 27.0 °F 96% 30.09 in 5.0 mi ESE 3.5 mph - 0.00 in   Overcast
8:53 AM 30.0 °F - 28.0 °F 92% 30.12 in 10.0 mi Calm Calm - N/A   Overcast
9:53 AM 30.9 °F - 28.9 °F 92% 30.14 in 6.0 mi Calm Calm - N/A   Overcast
10:21 AM 33.8 °F - 30.2 °F 87% 30.10 in 10.0 mi Calm Calm - N/A   Overcast
10:53 AM 34.0 °F 29.8 °F 30.0 °F 85% 30.16 in 10.0 mi SE 4.6 mph - N/A   Scattered Clouds
11:53 AM 37.0 °F 30.4 °F 23.0 °F 57% 30.15 in 10.0 mi WNW 9.2 mph - N/A   Overcast
12:53 PM 37.0 °F 30.4 °F 21.9 °F 54% 30.15 in 10.0 mi WNW 9.2 mph - 0.01 in   Overcast
2:53 PM 37.0 °F 27.7 °F 21.0 °F 52% 30.19 in 10.0 mi WNW 16.1 mph - N/A   Partly Cloudy
3:53 PM 36.0 °F 27.5 °F 19.9 °F 52% 30.21 in 10.0 mi WNW 12.7 mph - N/A   Clear
4:53 PM 34.0 °F 25.0 °F 19.0 °F 54% 30.23 in 10.0 mi WNW 12.7 mph - N/A   Clear
5:53 PM 32.0 °F 24.2 °F 19.0 °F 59% 30.28 in 10.0 mi West 9.2 mph - N/A   Mostly Cloudy
6:53 PM 30.0 °F 24.1 °F 19.0 °F 64% 30.32 in 10.0 mi West 5.8 mph - N/A   Scattered Clouds
7:53 PM 28.9 °F 23.9 °F 18.0 °F 64% 30.36 in 10.0 mi WNW 4.6 mph - N/A   Clear
8:53 PM 25.0 °F 20.7 °F 18.0 °F 75% 30.40 in 10.0 mi West 3.5 mph - N/A   Clear
9:53 PM 26.1 °F - 19.0 °F 75% 30.42 in 10.0 mi Calm Calm - N/A   Overcast
10:53 PM 21.9 °F 17.2 °F 18.0 °F 85% 30.44 in 10.0 mi South 3.5 mph - N/A   Partly Cloudy
11:53 PM 21.0 °F 13.4 °F 16.0 °F 81% 30.42 in 10.0 mi ESE 5.8 mph - N/A   Clear